Regional Weather Roundup
Issued by NWS Sioux Falls, SD

Home | Current Version | Previous Version | Graphics & Text | Print | Product List | Glossary Off
Versions: 1 2 3 4 5 6 7 8 9 10 11 12 13 14 15 16 17 18 19 20 21 22 23 24 25 26 27 28 29 30 31 32 33 34 35 36 37 38 39 40 41 42 43 44 45 46 47 48 49 50

000
ASUS43 KFSD 210610
RWRFSD

WEATHER ROUNDUP FOR SE SOUTH DAKOTA/SW MINNESOTA/NW IOWA
NATIONAL WEATHER SERVICE SIOUX FALLS SD
100 AM CDT MON AUG 21 2017

NOTE: "FAIR" INDICATES FEW OR NO CLOUDS BELOW 12,000 FEET WITH NO
SIGNIFICANT WEATHER AND OR OBSTRUCTIONS TO VISIBILITY.


SDZ038>040-050-052>070-210700-
SOUTHEAST SOUTH DAKOTA

CITY           SKY/WX    TMP DP  RH WIND       PRES   REMARKS
CHAMBERLAIN    PTCLDY    64  59  86 CALM      30.00F
6HR MIN TEMP:  64; 6HR MAX TEMP:  78;

HURON          CLEAR     60  56  86 CALM      30.00F
6HR MIN TEMP:  58; 6HR MAX TEMP:  73; 6HR PCP: TRACE;

MADISON        MOCLDY    63  63 100 NE7       30.03S
MITCHELL       MOCLDY    64  59  83 CALM      30.00F
6HR MIN TEMP:  64; 6HR MAX TEMP:  79;

SIOUX FALLS    PTCLDY    66  63  90 NE5       29.98F
6HR MIN TEMP:  66; 6HR MAX TEMP:  76;

WINNER         FAIR      67  63  87 E8        30.00F
YANKTON        CLEAR     69  65  86 NE6       29.96F
$$

MNZ071-072-080-081-089-090-097-098-210700-
SOUTHWEST MINNESOTA

CITY           SKY/WX    TMP DP  RH WIND       PRES   REMARKS
FAIRMONT       CLEAR     68  66  93 E5        29.99F
JACKSON        MOCLDY    66  64  94 CALM      30.01S
LUVERNE        PTCLDY    64  61  88 NE6       29.99F
MARSHALL       PTCLDY    61  60  97 N7        30.03F
6HR MIN TEMP:  61; 6HR MAX TEMP:  70;

MONTEVIDEO     CLEAR     59  54  82 CALM      30.04F
PIPESTONE      CLEAR     66  63  88 E7        30.01F
REDWOOD FALLS  PTCLDY    63  61  93 N6        30.02F
TRACY          CLOUDY    65  64  97 N6        30.02F
WINDOM         CLEAR     66  63  88 N5        30.00F
WORTHINGTON    CLEAR     65  64  97 N6        30.02F FOG
$$

IAZ001>003-012>014-020>022-031-032-NEZ013-014-SDZ071-210700-
NORTHWEST IOWA

CITY           SKY/WX    TMP DP  RH WIND       PRES   REMARKS
ESTHERVILLE    MOCLDY    68  68 100 E3        30.00F
ORANGE CITY    CLOUDY    72  70  94 E7        30.00R
SHELDON        CLOUDY    70  66  88 E9        29.98R
SIOUX CITY     TSTM      71  70  96 E5        29.96R
6HR MIN TEMP:  71; 6HR MAX TEMP:  82; 6HR PCP:  0.12;

SPENCER        CLOUDY    70  67  90 NE7       30.00S
6HR MIN TEMP:  70; 6HR MAX TEMP:  83;

STORM LAKE     LGT RAIN  72  70  94 VRB3G12   30.00F
$$

ABBREVIATIONS USED IN REMARKS
   TC - TEMPERATURE IN CELSIUS
  WCI - WIND CHILL INDEX
   HX - HEAT INDEX
  VSB - VISIBILITY




USA.gov is the U.S. government's official web portal to all federal, state and local government web resources and services.